Weather History for KROC - September, 2012

Change the Weather History Date:

Saturday, September 1, 2012

  Actual Average Record
Temperature  
Mean Temperature 71 °F 67 °F  
Max Temperature 82 °F 77 °F 95 °F (1953)
Min Temperature 59 °F 57 °F 43 °F (1985)
Degree Days  
Heating Degree Days 0 2  
Month to date heating degree days 0 2  
Since 1 July heating degree days 7 36  
Cooling Degree Days 6 3  
Month to date cooling degree days 6 3  
Year to date cooling degree days 741 487  
Growing Degree Days 20 (Base 50)    
Moisture  
Dew Point 57 °F    
Average Humidity 63    
Maximum Humidity 90    
Minimum Humidity 36    
Precipitation  
Precipitation 0.00 in 0.11 in 1.53 in (1910)
Month to date precipitation 0.00 0.11  
Year to date precipitation 20.49 22.71  
Snow  
Snow 0.00 in 0.00 in 0.00 in ()
Month to date snowfall 0.0 0.0  
Since 1 July snowfall 0.0 0.0  
Since 1 September snowfall 0.0 0.0  
Snow Depth 0.00 in    
Sea Level Pressure  
Sea Level Pressure 30.07 in    
Wind  
Wind Speed 5 mph (NNW)    
Max Wind Speed 13 mph    
Max Gust Speed 16 mph    
Visibility 10 miles    
Events      
T = Trace of Precipitation, MM = Missing Value Source: NWS Daily Summary

Daily Weather History Graph

Daily Weather History Graph

Search for Another Location

Airport or City:

Trip Planner

Search our weather history database for the weather conditions in past years. The results will help you decide how hot, cold, wet, or windy it might be!

Date:

Astronomy

Sep. 01, 2012 Rise Set
Actual Time 6:35 AM EDT 7:44 PM EDT
Civil Twilight 6:06 AM EDT 8:13 PM EDT
Nautical Twilight 5:31 AM EDT 8:48 PM EDT
Astronomical Twilight 4:54 AM EDT 9:25 PM EDT
Moon 7:56 PM EDT (9/1) 7:44 AM EDT (9/1)
Length of Visible Light 14h 07m
Length of Day
13h 09m
Full, 99% of the Moon is Illuminated
Sep 1
Full
Sep 8
Last Quarter
Sep 15
New
Sep 22
First Quarter
Sep 29
Full

Hourly Weather History & Observations

Time (EDT) Temp. Heat Index Dew Point Humidity Pressure Visibility Wind Dir Wind Speed Gust Speed Precip Events Conditions
12:54 AM 70.0 °F - 61.0 °F 73% 29.99 in 10.0 mi West 4.6 mph - N/A   Scattered Clouds
1:54 AM 69.1 °F - 60.1 °F 73% 30.00 in 10.0 mi West 4.6 mph - N/A   Partly Cloudy
2:54 AM 66.9 °F - 57.9 °F 73% 30.01 in 10.0 mi WSW 3.5 mph - N/A   Partly Cloudy
3:54 AM 63.0 °F - 57.9 °F 84% 30.03 in 10.0 mi SW 4.6 mph - N/A   Clear
4:54 AM 61.0 °F - 57.0 °F 87% 30.04 in 10.0 mi SW 3.5 mph - N/A   Clear
5:54 AM 60.1 °F - 57.0 °F 90% 30.06 in 10.0 mi SW 4.6 mph - N/A   Clear
6:54 AM 59.0 °F - 55.9 °F 90% 30.09 in 10.0 mi SW 4.6 mph - N/A   Scattered Clouds
7:54 AM 63.0 °F - 59.0 °F 87% 30.10 in 10.0 mi SW 4.6 mph - N/A   Scattered Clouds
8:54 AM 70.0 °F - 62.1 °F 76% 30.11 in 10.0 mi NNW 3.5 mph - N/A   Scattered Clouds
9:54 AM 73.9 °F - 63.0 °F 68% 30.12 in 10.0 mi Calm Calm - N/A   Scattered Clouds
10:54 AM 75.9 °F - 64.0 °F 67% 30.12 in 10.0 mi Variable 3.5 mph - N/A   Scattered Clouds
11:54 AM 78.1 °F - 63.0 °F 60% 30.12 in 10.0 mi North 9.2 mph - N/A   Scattered Clouds
12:54 PM 78.1 °F - 63.0 °F 60% 30.11 in 10.0 mi NNE 8.1 mph - N/A   Scattered Clouds
1:54 PM 79.0 °F - 61.0 °F 54% 30.11 in 10.0 mi North 6.9 mph - N/A   Scattered Clouds
2:54 PM 80.1 °F 80.4 °F 57.0 °F 45% 30.10 in 10.0 mi NE 5.8 mph - N/A   Scattered Clouds
3:54 PM 81.0 °F 80.5 °F 54.0 °F 39% 30.09 in 10.0 mi NE 6.9 mph - N/A   Scattered Clouds
4:54 PM 80.1 °F 79.9 °F 53.1 °F 39% 30.08 in 10.0 mi NNE 9.2 mph - N/A   Scattered Clouds
5:54 PM 78.8 °F - 51.8 °F 39% 30.07 in 10.0 mi NNE 10.4 mph - N/A   Partly Cloudy
6:54 PM 77.0 °F - 48.9 °F 37% 30.06 in 10.0 mi NE 9.2 mph - N/A   Partly Cloudy
7:54 PM 73.9 °F - 50.0 °F 43% 30.08 in 10.0 mi ENE 4.6 mph - N/A   Partly Cloudy
8:54 PM 69.1 °F - 54.0 °F 58% 30.09 in 10.0 mi Calm Calm - N/A   Partly Cloudy
9:54 PM 64.9 °F - 54.0 °F 68% 30.09 in 10.0 mi Calm Calm - N/A   Scattered Clouds
10:54 PM 63.0 °F - 55.0 °F 75% 30.09 in 10.0 mi Calm Calm - N/A   Scattered Clouds
11:54 PM 60.1 °F - 55.9 °F 86% 30.09 in 10.0 mi Calm Calm - N/A   Scattered Clouds